Regional Weather Roundup
Issued by NWS

Home | Current Version | Previous Version | Text Only | Print | Product List | Glossary Off
Versions: 1 2 3 4 5 6 7 8 9 10 11 12 13 14 15 16 17 18 19 20 21 22 23 24 25 26 27 28 29 30 31 32 33 34 35 36 37 38 39 40 41 42 43 44 45 46 47 48 49 50

000
ASUS45 KSLC 241310
RWRUT

UTAH REGIONAL WEATHER ROUNDUP
NATIONAL WEATHER SERVICE SALT LAKE CITY UT
600 AM MST SAT FEB 24 2018

UTZ001>011-023>025-241400-

NORTHERN UTAH

CITY           SKY/WX    TMP DP  RH WIND       PRES   REMARKS
BRIGHAM CITY   CLOUDY    21  12  68 E5        30.14S WCI  15
HILL AFB       CLOUDY    17  14  91 SW6       30.12S WCI   8
LOGAN          CLOUDY    13   5  70 CALM      30.12S
OGDEN          CLOUDY    20  14  77 S13       30.13R WCI   7
SALT LAKE CITY MOCLDY    16  11  80 SE8       30.16S WCI   5
WENDOVER       CLOUDY    19   9  65 NE7       30.14F WCI  10
HEBER CITY       N/A     -4  -8  84 CALM      30.08S
WEST JORDAN    CLOUDY    12   7  78 SW8       30.15S WCI   1

$$

UTZ011>015-024>027-241400-

CENTRAL/NORTHEAST UTAH

CITY           SKY/WX    TMP DP  RH WIND       PRES   REMARKS
PROVO AIRPORT  PTCLDY     4  -1  80 SE3       30.19S
MOAB/CANYONLAN CLEAR     20   5  52 W12       30.08R WCI   8
DELTA          MOCLDY    -4  -6  92 CALM      30.18R
PRICE          PTCLDY    12   1  61 NW7       30.01R WCI   1
RICHFIELD      CLEAR      9   5  85 CALM      30.16R
VERNAL         PTCLDY     9   7  92 CALM      30.01R

$$

UTZ013>016-019>022-027-241400-

SOUTHERN UTAH

CITY           SKY/WX    TMP DP  RH WIND       PRES   REMARKS
BRYCE CANYON   PTCLDY    -1  -5  82 W9        30.04R WCI -16
CEDAR CITY     PTCLDY     1  -2  87 CALM      30.14R
MILFORD        PTCLDY     2  -1  88 S9        30.17S WCI -13
ST GEORGE      MOSUNNY   25  20  81 SE7       30.27R WCI  17
HANKSVILLE     CLEAR     12   5  73 E5        30.13S WCI   4
KANAB          CLEAR     10   5  79 N5        30.22R WCI   2
BLANDING         N/A     13  11  92 NW3       30.10R

$$

REGIONAL REPORTS     COLORADO/ARIZONA

CITY           SKY/WX    TMP DP  RH WIND       PRES   REMARKS
CRAIG, CO      MOCLDY     8   4  83 SW3       29.96R
GRAND JUNCTION PTCLDY    20  13  74 NW3       30.04R
RIFLE, CO      CLOUDY    21  10  62 NW7       29.98R WCI  12
MONTROSE, CO   CLEAR     12   8  84 S6        30.03R WCI   3
CORTEZ, CO     PTCLDY    18  10  71 W3        30.04R
COLORADO CITY    N/A     12   9  85 CALM      30.21R
PAGE, AZ       PTCLDY    26   6  42 NW7       30.15R WCI  18
GRAND CANYON   PTCLDY   -13 -17  82 CALM      30.10S
KINGMAN, AZ    CLEAR     22  19  89 SE8       30.23R WCI  12
FLAGSTAFF, AZ  PTCLDY     3  -2  79 CALM      30.07R

$$

REGIONAL REPORTS    NEVADA/IDAHO/WYOMING

CITY           SKY/WX    TMP DP  RH WIND       PRES   REMARKS
LAS VEGAS, NV  CLEAR     33   9  36 S5        30.27S WCI  29
ELY, NY        PTCLDY    -3  -9  75 S13       30.14F WCI -22
ELKO, NV       CLOUDY    15   7  70 SW6       30.16S WCI   6
POCATELLO, ID  PTCLDY    20   9  62 SW22      30.06F WCI   3
BURLEY, ID     CLOUDY    21  11  65 W9        30.07S WCI  11
EVANSTON, WY   CLOUDY     6   2  83 SW16      29.95S WCI -12
ROCK SPRINGS,  MIX PCPN   8   0  69 W24G38    29.90S WCI -13

$$



USA.gov is the U.S. government's official web portal to all federal, state and local government web resources and services.